When you browse on this site, cookies collect data to enhance your experience and personalize the content and advertising you see.
Visit our Privacy Policy to learn more. By continuing to use the site, you agree to this use of cookies and data.
  • In Lithuania
  • List of Countries
  • For 7 days
  • Water Temperature
  • Satellite Maps
  • Weather Map
  • Weather Widgets
  • user-avatar
    Login

    Hourly Weather Soldatskaya

    Today, 17 November, Saturday

    Time Temperature Precipitation Wind Pressure Humidity
    00:00 +6°C° 0 mm 2 mps 743 mmHg 89%
    01:00 +6°C° 0 mm 2 mps 743 mmHg 89%
    02:00 +6°C° 0 mm 2 mps 743 mmHg 89%
    03:00 +6°C° 0 mm 2 mps 743 mmHg 88%
    04:00 +6°C° 0.1 mm 2 mps 743 mmHg 89%
    05:00 +7°C° 0.1 mm 2 mps 743 mmHg 89%
    06:00 +7°C° 0.1 mm 2 mps 743 mmHg 89%
    07:00 +7°C° 0.7 mm 2 mps 744 mmHg 90%
    08:00 +7°C° 0.7 mm 2 mps 744 mmHg 90%
    09:00 +7°C° 0.7 mm 2 mps 744 mmHg 91%
    10:00 +7°C° 1.1 mm 2 mps 744 mmHg 91%
    11:00 +7°C° 1.1 mm 2 mps 745 mmHg 91%
    12:00 +7°C° 1.1 mm 2 mps 745 mmHg 91%
    13:00 +7°C° 0.3 mm 2 mps 745 mmHg 91%
    14:00 +7°C° 0.3 mm 2 mps 745 mmHg 91%
    15:00 +7°C° 0.3 mm 2 mps 745 mmHg 90%
    16:00 +6°C° 0.1 mm 2 mps 746 mmHg 91%
    17:00 +7°C° 0.1 mm 1 mps 746 mmHg 91%
    18:00 +7°C° 0.1 mm 1 mps 746 mmHg 92%
    19:00 +7°C° 0 mm 1 mps 746 mmHg 91%
    20:00 +7°C° 0 mm 1 mps 746 mmHg 90%
    21:00 +5°C° 0 mm 0 mps 746 mmHg 90%
    22:00 +5°C° 0 mm 0 mps 746 mmHg 90%
    23:00 +5°C° 0 mm 0 mps 746 mmHg 90%

    Tomorrow, 18 November, Sunday

    Time Temperature Precipitation Wind Pressure Humidity
    00:00 +5°C° 0 mm 0 mps 746 mmHg 90%
    01:00 +6°C° 0 mm 1 mps 746 mmHg 89%
    02:00 +6°C° 0 mm 1 mps 745 mmHg 89%
    03:00 +6°C° 0 mm 1 mps 745 mmHg 88%
    04:00 +6°C° 0 mm 1 mps 745 mmHg 88%
    05:00 +6°C° 0 mm 1 mps 745 mmHg 87%
    06:00 +4°C° 0 mm 0 mps 745 mmHg 87%
    07:00 +5°C° 0 mm 0 mps 744 mmHg 83%
    08:00 +6°C° 0 mm 0 mps 744 mmHg 79%
    09:00 +6°C° 0 mm 0 mps 744 mmHg 75%
    10:00 +8°C° 0 mm 1 mps 744 mmHg 72%
    11:00 +10°C° 0 mm 1 mps 743 mmHg 68%
    12:00 +11°C° 0 mm 1 mps 743 mmHg 64%
    13:00 +11°C° 0 mm 1 mps 743 mmHg 64%
    14:00 +11°C° 0 mm 1 mps 743 mmHg 65%
    15:00 +10°C° 0 mm 2 mps 742 mmHg 65%
    16:00 +9°C° 0 mm 2 mps 743 mmHg 72%
    17:00 +9°C° 0 mm 1 mps 743 mmHg 78%
    18:00 +8°C° 0 mm 1 mps 743 mmHg 85%
    19:00 +7°C° 0 mm 1 mps 743 mmHg 86%
    20:00 +7°C° 0 mm 1 mps 743 mmHg 88%
    21:00 +7°C° 0 mm 1 mps 743 mmHg 89%
    22:00 +6°C° 0 mm 1 mps 743 mmHg 89%
    23:00 +6°C° 0 mm 1 mps 743 mmHg 89%

    Day after tomorrow, 19 November, Monday

    Time Temperature Precipitation Wind Pressure Humidity
    00:00 +6°C° 0 mm 1 mps 743 mmHg 89%
    01:00 +6°C° 0 mm 1 mps 743 mmHg 89%
    02:00 +6°C° 0 mm 1 mps 743 mmHg 88%
    03:00 +5°C° 0 mm 1 mps 743 mmHg 88%
    04:00 +5°C° 0 mm 1 mps 743 mmHg 88%
    05:00 +5°C° 0 mm 1 mps 743 mmHg 87%
    06:00 +5°C° 0 mm 1 mps 743 mmHg 87%
    07:00 +5°C° 0 mm 2 mps 744 mmHg 85%
    08:00 +5°C° 0 mm 2 mps 744 mmHg 83%
    09:00 +6°C° 0 mm 2 mps 744 mmHg 81%
    10:00 +7°C° 0 mm 3 mps 744 mmHg 77%
    11:00 +8°C° 0 mm 3 mps 743 mmHg 72%
    12:00 +8°C° 0 mm 4 mps 743 mmHg 67%
    13:00 +8°C° 0 mm 4 mps 743 mmHg 66%
    14:00 +10°C° 0 mm 4 mps 743 mmHg 65%
    15:00 +10°C° 0 mm 4 mps 742 mmHg 63%
    16:00 +8°C° 0 mm 4 mps 743 mmHg 68%
    17:00 +6°C° 0 mm 4 mps 743 mmHg 72%
    18:00 +5°C° 0 mm 3 mps 743 mmHg 77%
    19:00 +5°C° 0 mm 3 mps 743 mmHg 78%
    20:00 +4°C° 0 mm 3 mps 743 mmHg 80%
    21:00 +4°C° 0 mm 3 mps 743 mmHg 82%
    22:00 +4°C° 0 mm 3 mps 743 mmHg 84%
    23:00 +4°C° 0 mm 3 mps 743 mmHg 85%

    20 November, Tuesday

    Time Temperature Precipitation Wind Pressure Humidity
    00:00 +4°C° 0 mm 3 mps 743 mmHg 86%
    01:00 +4°C° 0 mm 3 mps 743 mmHg 87%
    02:00 +4°C° 0 mm 3 mps 743 mmHg 88%
    03:00 +5°C° 0 mm 2 mps 743 mmHg 88%
    04:00 +5°C° 0 mm 2 mps 743 mmHg 89%
    05:00 +5°C° 0 mm 2 mps 743 mmHg 90%
    06:00 +6°C° 0 mm 1 mps 744 mmHg 91%
    07:00 +7°C° 0 mm 1 mps 744 mmHg 90%
    08:00 +6°C° 0 mm 2 mps 744 mmHg 88%
    09:00 +6°C° 0 mm 2 mps 744 mmHg 87%
    10:00 +7°C° 0 mm 2 mps 744 mmHg 83%
    11:00 +8°C° 0 mm 2 mps 743 mmHg 80%
    12:00 +9°C° 0 mm 2 mps 743 mmHg 76%
    13:00 +9°C° 0 mm 2 mps 743 mmHg 76%
    14:00 +10°C° 0 mm 1 mps 743 mmHg 75%
    15:00 +10°C° 0 mm 1 mps 743 mmHg 75%
    16:00 +10°C° 0 mm 1 mps 743 mmHg 78%
    17:00 +9°C° 0 mm 1 mps 744 mmHg 82%
    18:00 +8°C° 0 mm 1 mps 744 mmHg 85%
    19:00 +8°C° 0 mm 1 mps 744 mmHg 84%
    20:00 +8°C° 0 mm 1 mps 744 mmHg 84%
    21:00 +8°C° 0 mm 1 mps 744 mmHg 83%
    22:00 +8°C° 0 mm 1 mps 744 mmHg 83%
    23:00 +8°C° 0 mm 1 mps 744 mmHg 83%

    21 November, Wednesday

    Time Temperature Precipitation Wind Pressure Humidity
    00:00 +7°C° 0 mm 1 mps 743 mmHg 83%
    01:00 +7°C° 0 mm 1 mps 743 mmHg 81%
    02:00 +7°C° 0 mm 1 mps 743 mmHg 80%
    03:00 +8°C° 0 mm 1 mps 743 mmHg 79%
    04:00 +7°C° 0 mm 1 mps 742 mmHg 78%
    05:00 +7°C° 0 mm 1 mps 742 mmHg 78%
    06:00 +7°C° 0 mm 1 mps 742 mmHg 78%
    07:00 +8°C° 0 mm 1 mps 742 mmHg 74%
    08:00 +9°C° 0 mm 1 mps 742 mmHg 70%
    09:00 +10°C° 0 mm 1 mps 741 mmHg 67%
    10:00 +11°C° 0 mm 1 mps 741 mmHg 63%
    11:00 +12°C° 0 mm 1 mps 741 mmHg 60%
    12:00 +14°C° 0 mm 1 mps 740 mmHg 57%
    13:00 +14°C° 0 mm 1 mps 740 mmHg 58%
    14:00 +14°C° 0 mm 1 mps 740 mmHg 60%
    15:00 +14°C° 0 mm 1 mps 739 mmHg 61%
    16:00 +13°C° 0 mm 1 mps 739 mmHg 65%
    17:00 +12°C° 0 mm 1 mps 739 mmHg 69%
    18:00 +11°C° 0 mm 1 mps 739 mmHg 73%
    19:00 +11°C° 0 mm 1 mps 739 mmHg 73%
    20:00 +10°C° 0 mm 1 mps 739 mmHg 74%
    21:00 +10°C° 0 mm 1 mps 739 mmHg 74%
    22:00 +10°C° 0 mm 1 mps 738 mmHg 75%
    23:00 +10°C° 0 mm 1 mps 738 mmHg 75%

    22 November, Thursday

    Time Temperature Precipitation Wind Pressure Humidity
    00:00 +10°C° 0 mm 1 mps 738 mmHg 75%
    01:00 +10°C° 0 mm 1 mps 737 mmHg 75%
    02:00 +10°C° 0 mm 1 mps 737 mmHg 75%
    03:00 +9°C° 0 mm 1 mps 737 mmHg 75%
    04:00 +9°C° 0 mm 1 mps 736 mmHg 75%
    05:00 +9°C° 0 mm 1 mps 736 mmHg 75%
    06:00 +9°C° 0 mm 1 mps 736 mmHg 76%
    07:00 +9°C° 0 mm 1 mps 736 mmHg 74%
    08:00 +10°C° 0 mm 1 mps 736 mmHg 72%
    09:00 +10°C° 0 mm 1 mps 736 mmHg 69%
    10:00 +11°C° 0 mm 1 mps 736 mmHg 66%
    11:00 +12°C° 0 mm 1 mps 735 mmHg 63%
    12:00 +13°C° 0 mm 1 mps 735 mmHg 59%
    13:00 +13°C° 0 mm 1 mps 735 mmHg 61%
    14:00 +13°C° 0 mm 1 mps 735 mmHg 63%
    15:00 +13°C° 0 mm 1 mps 735 mmHg 64%
    16:00 +12°C° 0.1 mm 1 mps 735 mmHg 69%
    17:00 +12°C° 0.1 mm 1 mps 735 mmHg 75%
    18:00 +10°C° 0.1 mm 0 mps 736 mmHg 80%
    19:00 +10°C° 0.1 mm 0 mps 736 mmHg 81%
    20:00 +9°C° 0.1 mm 0 mps 736 mmHg 83%
    21:00 +9°C° 0.1 mm 0 mps 735 mmHg 85%
    22:00 +9°C° 0.1 mm 0 mps 736 mmHg 85%
    23:00 +9°C° 0.1 mm 0 mps 736 mmHg 86%
    Show more